Location: ????? ??????
(37.8317°N, 23.8750°E)
Time: 13:06:12
(UTC+00:00)

CZ-2C R/B - Pass Details

Date: 20 January 2021
Orbit: 704 x 908 km, 98.1° (Epoch: 03 March)

Event Time Altitude Azimuth Distance (km) Brightness Sun altitude
Rises 16:24:14 0° 152° (SSE) 3,235 6.1 -9.9°
Reaches altitude 10° 16:26:31 10° 148° (SSE) 2,341 5.4 -10.4°
Maximum altitude 16:31:33 53° 72° (ENE) 1,004 3.2 -11.3°
Drops below altitude 10° 16:36:53 10° 357° (N) 2,487 5.5 -12.3°
Sets 16:39:23 0° 353° (N) 3,455 6.3 -12.8°
